Hourly Weather Ottappalam

Today, 24 July, Saturday

Time Temperature Precipitation Wind Pressure Humidity
00:00 +26°C° 1.3 mm 1 mps 754 mmHg 94%
01:00 +25°C° 1.3 mm 1 mps 753 mmHg 95%
02:00 +25°C° 1.3 mm 1 mps 753 mmHg 96%
03:00 +25°C° 0.8 mm 1 mps 753 mmHg 96%
04:00 +25°C° 0.8 mm 1 mps 753 mmHg 96%
05:00 +25°C° 0 mm 1 mps 753 mmHg 96%
06:00 +26°C° 0.5 mm 1 mps 753 mmHg 94%
07:00 +27°C° 0.5 mm 1 mps 754 mmHg 91%
08:00 +28°C° 0.5 mm 2 mps 754 mmHg 89%
09:00 +28°C° 0.7 mm 2 mps 754 mmHg 85%
10:00 +29°C° 0.7 mm 3 mps 754 mmHg 82%
11:00 +30°C° 0 mm 3 mps 754 mmHg 78%
12:00 +30°C° 0.8 mm 3 mps 754 mmHg 79%
13:00 +30°C° 0.8 mm 3 mps 753 mmHg 80%
14:00 +30°C° 0.8 mm 3 mps 753 mmHg 81%
15:00 +29°C° 0.6 mm 3 mps 753 mmHg 83%
16:00 +29°C° 0.6 mm 2 mps 753 mmHg 85%
17:00 +28°C° 0 mm 2 mps 753 mmHg 88%
18:00 +28°C° 0.3 mm 2 mps 753 mmHg 90%
19:00 +27°C° 0.3 mm 1 mps 754 mmHg 93%
20:00 +26°C° 0.3 mm 1 mps 754 mmHg 96%
21:00 +26°C° 0 mm 1 mps 754 mmHg 96%
22:00 +26°C° 0 mm 1 mps 754 mmHg 96%
23:00 +26°C° 0 mm 1 mps 755 mmHg 97%

Tomorrow, 25 July, Sunday

Time Temperature Precipitation Wind Pressure Humidity
00:00 +25°C° 0 mm 1 mps 754 mmHg 97%
01:00 +25°C° 0 mm 1 mps 754 mmHg 97%
02:00 +25°C° 0 mm 1 mps 753 mmHg 97%
03:00 +25°C° 0 mm 1 mps 754 mmHg 97%
04:00 +25°C° 0 mm 1 mps 754 mmHg 97%
05:00 +25°C° 0 mm 1 mps 754 mmHg 97%
06:00 +26°C° 0.1 mm 1 mps 754 mmHg 94%
07:00 +27°C° 0.1 mm 1 mps 755 mmHg 91%
08:00 +28°C° 0.1 mm 1 mps 755 mmHg 88%
09:00 +29°C° 0.3 mm 2 mps 755 mmHg 83%
10:00 +30°C° 0.3 mm 2 mps 755 mmHg 77%
11:00 +31°C° 0.3 mm 3 mps 755 mmHg 72%
12:00 +31°C° 0.3 mm 3 mps 754 mmHg 70%
13:00 +31°C° 0.3 mm 3 mps 754 mmHg 68%
14:00 +31°C° 0.3 mm 3 mps 753 mmHg 67%
15:00 +31°C° 0.3 mm 3 mps 753 mmHg 71%
16:00 +30°C° 0.3 mm 3 mps 753 mmHg 76%
17:00 +29°C° 0.3 mm 3 mps 753 mmHg 81%
18:00 +28°C° 0.1 mm 2 mps 754 mmHg 85%
19:00 +27°C° 0.1 mm 2 mps 755 mmHg 89%
20:00 +26°C° 0.1 mm 1 mps 755 mmHg 93%
21:00 +26°C° 0.2 mm 1 mps 755 mmHg 93%
22:00 +26°C° 0.2 mm 1 mps 755 mmHg 93%
23:00 +26°C° 0.2 mm 1 mps 756 mmHg 93%

Day after tomorrow, 26 July, Monday

Time Temperature Precipitation Wind Pressure Humidity
00:00 +26°C° 0.3 mm 1 mps 755 mmHg 93%
01:00 +26°C° 0.3 mm 1 mps 755 mmHg 92%
02:00 +26°C° 0.3 mm 1 mps 754 mmHg 92%
03:00 +26°C° 0.2 mm 1 mps 754 mmHg 92%
04:00 +25°C° 0.2 mm 1 mps 754 mmHg 92%
05:00 +25°C° 0.2 mm 1 mps 754 mmHg 92%
06:00 +26°C° 0.1 mm 1 mps 755 mmHg 92%
07:00 +26°C° 0.1 mm 1 mps 755 mmHg 91%
08:00 +26°C° 0.1 mm 1 mps 756 mmHg 90%
09:00 +28°C° 0.5 mm 1 mps 756 mmHg 86%
10:00 +29°C° 0.5 mm 2 mps 756 mmHg 81%
11:00 +30°C° 0.5 mm 3 mps 755 mmHg 77%
12:00 +30°C° 0.6 mm 3 mps 755 mmHg 77%
13:00 +30°C° 0.6 mm 3 mps 754 mmHg 78%
14:00 +30°C° 0.6 mm 3 mps 754 mmHg 78%
15:00 +29°C° 0.5 mm 3 mps 754 mmHg 80%
16:00 +29°C° 0.5 mm 2 mps 754 mmHg 82%
17:00 +28°C° 0.5 mm 2 mps 754 mmHg 84%
18:00 +27°C° 0.3 mm 2 mps 754 mmHg 87%
19:00 +26°C° 0.3 mm 1 mps 755 mmHg 91%
20:00 +26°C° 0.3 mm 1 mps 755 mmHg 95%
21:00 +25°C° 0.1 mm 1 mps 756 mmHg 95%
22:00 +25°C° 0.1 mm 1 mps 756 mmHg 96%
23:00 +25°C° 0.1 mm 1 mps 756 mmHg 96%

27 July, Tuesday

Time Temperature Precipitation Wind Pressure Humidity
00:00 +25°C° 0.1 mm 1 mps 755 mmHg 96%
01:00 +25°C° 0.1 mm 1 mps 755 mmHg 96%
02:00 +25°C° 0.1 mm 1 mps 755 mmHg 96%
03:00 +25°C° 0 mm 1 mps 754 mmHg 96%
04:00 +25°C° 0 mm 1 mps 754 mmHg 96%
05:00 +24°C° 0 mm 1 mps 754 mmHg 96%
06:00 +25°C° 0.1 mm 1 mps 755 mmHg 93%
07:00 +26°C° 0.1 mm 1 mps 755 mmHg 89%
08:00 +27°C° 0.1 mm 1 mps 756 mmHg 86%
09:00 +28°C° 0.3 mm 2 mps 756 mmHg 81%
10:00 +29°C° 0.3 mm 2 mps 755 mmHg 75%
11:00 +30°C° 0.3 mm 3 mps 755 mmHg 70%
12:00 +30°C° 0.4 mm 3 mps 755 mmHg 69%
13:00 +31°C° 0.4 mm 3 mps 754 mmHg 67%
14:00 +32°C° 0.4 mm 4 mps 754 mmHg 65%
15:00 +30°C° 0.3 mm 3 mps 754 mmHg 70%
16:00 +29°C° 0.3 mm 3 mps 754 mmHg 74%
17:00 +28°C° 0.3 mm 3 mps 754 mmHg 78%
18:00 +28°C° 0.1 mm 2 mps 754 mmHg 82%
19:00 +27°C° 0.1 mm 1 mps 755 mmHg 86%
20:00 +26°C° 0.1 mm 1 mps 755 mmHg 90%
21:00 +26°C° 0 mm 1 mps 756 mmHg 91%
22:00 +25°C° 0 mm 1 mps 756 mmHg 92%
23:00 +25°C° 0 mm 1 mps 756 mmHg 92%

28 July, Wednesday

Time Temperature Precipitation Wind Pressure Humidity
00:00 +25°C° 0.1 mm 1 mps 755 mmHg 93%
01:00 +25°C° 0.1 mm 1 mps 755 mmHg 93%
02:00 +25°C° 0.1 mm 1 mps 754 mmHg 94%
03:00 +25°C° 0 mm 1 mps 754 mmHg 93%
04:00 +25°C° 0 mm 1 mps 754 mmHg 93%
05:00 +24°C° 0 mm 1 mps 754 mmHg 93%
06:00 +26°C° 0 mm 1 mps 755 mmHg 88%
07:00 +27°C° 0 mm 1 mps 755 mmHg 83%
08:00 +28°C° 0 mm 1 mps 756 mmHg 79%
09:00 +29°C° 0.1 mm 2 mps 755 mmHg 73%
10:00 +30°C° 0.1 mm 3 mps 755 mmHg 67%
11:00 +31°C° 0.1 mm 3 mps 755 mmHg 62%
12:00 +33°C° 0.1 mm 3 mps 754 mmHg 62%
13:00 +33°C° 0.1 mm 4 mps 754 mmHg 61%
14:00 +33°C° 0.1 mm 4 mps 753 mmHg 61%
15:00 +31°C° 0.3 mm 3 mps 754 mmHg 67%
16:00 +30°C° 0.3 mm 3 mps 754 mmHg 72%
17:00 +29°C° 0.3 mm 3 mps 754 mmHg 78%
18:00 +28°C° 0.2 mm 2 mps 755 mmHg 83%
19:00 +27°C° 0.2 mm 2 mps 755 mmHg 88%
20:00 +26°C° 0.2 mm 1 mps 756 mmHg 92%
21:00 +26°C° 0 mm 1 mps 756 mmHg 92%
22:00 +26°C° 0 mm 1 mps 756 mmHg 93%
23:00 +26°C° 0 mm 1 mps 756 mmHg 93%

29 July, Thursday

Time Temperature Precipitation Wind Pressure Humidity
00:00 +26°C° 0.1 mm 1 mps 755 mmHg 93%
01:00 +25°C° 0.1 mm 1 mps 755 mmHg 93%
02:00 +25°C° 0.1 mm 1 mps 754 mmHg 93%
03:00 +25°C° 0.1 mm 1 mps 754 mmHg 93%
04:00 +25°C° 0.1 mm 1 mps 754 mmHg 93%
05:00 +25°C° 0.1 mm 1 mps 754 mmHg 93%
06:00 +26°C° 0.1 mm 1 mps 755 mmHg 90%
07:00 +27°C° 0.1 mm 1 mps 755 mmHg 86%
08:00 +28°C° 0.1 mm 2 mps 756 mmHg 83%
09:00 +28°C° 0.5 mm 2 mps 756 mmHg 80%
10:00 +29°C° 0.5 mm 3 mps 756 mmHg 78%
11:00 +30°C° 0.5 mm 3 mps 756 mmHg 75%
12:00 +29°C° 0.9 mm 3 mps 755 mmHg 77%
13:00 +29°C° 0.9 mm 3 mps 755 mmHg 79%
14:00 +29°C° 0.9 mm 3 mps 755 mmHg 81%
15:00 +28°C° 0.7 mm 3 mps 755 mmHg 84%
16:00 +27°C° 0.7 mm 2 mps 755 mmHg 87%
17:00 +27°C° 0.7 mm 2 mps 755 mmHg 90%
18:00 +26°C° 0.1 mm 2 mps 755 mmHg 91%
19:00 +26°C° 0.1 mm 1 mps 756 mmHg 93%
20:00 +25°C° 0.1 mm 1 mps 756 mmHg 94%
21:00 +25°C° 0 mm 1 mps 756 mmHg 94%
22:00 +25°C° 0 mm 1 mps 756 mmHg 94%
23:00 +25°C° 0 mm 1 mps 756 mmHg 94%
Show more